CW9692 Weather Reports


time (UTC)temp
F
wind
direction
speed
knots
gust
knots
rain 1hr
in
rain 24hr
in
rain mn
in
humidity
%
barometer
mb
20260510180021 78 129 0.0 5.2 0.00 0.00 0.00 51 1013.8
20260510174524 79 151 0.0 0.0 0.00 0.00 0.00 52 1013.9
20260510173010 78 154 0.0 0.0 0.00 0.00 0.00 52 1013.8
20260510171526 78 148 0.0 0.0 0.00 0.00 0.00 54 1014.0
20260510170021 78 150 0.0 0.0 0.00 0.00 0.00 57 1014.0
20260510164526 79 153 0.0 0.0 0.00 0.00 0.00 56 1014.1
20260510163037 79 208 0.0 0.0 0.00 0.00 0.00 49 1014.2
20260510161512 79 327 0.0 0.0 0.00 0.00 0.00 46 1014.3
20260510160018 78 309 0.0 0.0 0.00 0.00 0.00 49 1014.2
20260510154529 77 323 0.0 0.0 0.00 0.00 0.00 50 1014.3
20260510153025 77 269 0.0 0.0 0.00 0.00 0.00 53 1014.5
20260510151511 76 248 0.0 0.0 0.00 0.00 0.00 52 1014.3
20260510150017 74 292 0.0 0.0 0.00 0.00 0.00 54 1014.0
20260510144503 74 312 0.0 0.0 0.00 0.00 0.00 54 1013.8
20260510143008 73 296 0.0 0.0 0.00 0.00 0.00 57 1013.7
20260510141509 71 298 0.0 0.0 0.00 0.00 0.00 62 1013.8
20260510140015 69 298 0.0 0.0 0.00 0.00 0.00 66 1014.0
20260510134528 66 343 0.0 0.0 0.00 0.00 0.00 77 1013.8
20260510133002 63 343 0.0 0.0 0.00 0.00 0.00 84 1014.0
20260510131505 61 343 0.0 0.9 0.00 0.00 0.00 94 1014.1
20260510130012 59 360 0.0 1.7 0.00 0.00 0.00 96 1014.3
20260510124532 58 360 0.0 0.0 0.00 0.00 0.00 96 1014.4
20260510123019 57 360 0.0 1.7 0.00 0.00 0.00 96 1014.3
20260510121511 55 5 0.0 0.9 0.00 0.00 0.00 96 1014.1
20260510120011 54 15 0.0 0.9 0.00 0.00 0.00 96 1014.0
20260510114514 53 12 0.0 1.7 0.00 0.00 0.00 96 1013.9
20260510113018 51 30 0.0 0.0 0.00 0.00 0.00 95 1013.6
20260510111520 50 29 0.0 0.0 0.00 0.00 0.00 95 1013.3
20260510110010 50 352 0.0 0.0 0.00 0.00 0.00 95 1012.9
20260510104512 50 352 0.0 0.9 0.00 0.00 0.00 94 1012.6
20260510103020 50 117 0.0 0.0 0.00 0.00 0.00 94 1012.5
20260510101517 50 117 0.0 0.0 0.00 0.00 0.00 94 1012.5
20260510100031 49 134 0.0 0.0 0.00 0.00 0.00 94 1012.4
20260510094545 49 134 0.0 0.0 0.00 0.00 0.00 93 1012.3
20260510093012 50 134 0.0 0.0 0.00 0.00 0.00 93 1012.4
20260510091520 50 134 0.0 0.0 0.00 0.00 0.00 93 1012.3
20260510090025 50 134 0.0 0.0 0.00 0.00 0.00 93 1012.0
20260510084528 50 134 0.0 0.0 0.00 0.00 0.00 92 1011.8
20260510083018 50 134 0.0 0.0 0.00 0.00 0.00 92 1011.4
20260510081515 51 134 0.0 0.0 0.00 0.00 0.00 92 1011.2
20260510080027 51 134 0.0 0.0 0.00 0.00 0.00 92 1011.1
20260510074523 51 134 0.0 0.0 0.00 0.00 0.00 92 1011.0
20260510073026 52 134 0.0 0.0 0.00 0.00 0.00 92 1010.8
20260510071512 52 134 0.0 0.0 0.00 0.00 0.00 92 1010.9
20260510070016 52 134 0.0 0.0 0.00 0.00 0.00 91 1010.8
20260510064531 53 134 0.0 0.0 0.00 0.00 0.00 91 1010.9
20260510063024 53 134 0.0 0.0 0.00 0.00 0.00 91 1010.8
20260510061509 53 134 0.0 0.0 0.00 0.00 0.00 91 1010.7
20260510060016 54 134 0.0 0.0 0.00 0.00 0.00 90 1010.6
20260510054504 54 134 0.0 0.0 0.00 0.00 0.00 90 1010.7
20260510053008 54 134 0.0 0.0 0.00 0.00 0.00 89 1010.9
20260510051507 55 134 0.0 0.0 0.00 0.00 0.00 89 1010.9
20260510050015 55 134 0.0 0.0 0.00 0.00 0.00 89 1010.9
20260510044528 56 134 0.0 0.0 0.00 0.00 0.00 88 1011.0
20260510043004 56 134 0.0 0.0 0.00 0.00 0.00 88 1011.0
20260510041504 56 134 0.0 0.0 0.00 0.00 0.00 87 1011.0
20260510040012 57 134 0.0 0.0 0.00 0.00 0.00 87 1010.9
20260510034516 58 134 0.0 0.0 0.00 0.00 0.00 86 1010.8
20260510033017 58 134 0.0 0.0 0.00 0.00 0.00 85 1010.7
20260510031507 59 134 0.0 0.0 0.00 0.00 0.00 83 1010.8
20260510030008 60 134 0.0 0.0 0.00 0.00 0.00 82 1010.7
20260510024513 61 134 0.0 0.0 0.00 0.00 0.00 80 1010.6
20260510023016 61 134 0.0 0.0 0.00 0.00 0.00 80 1010.6
20260510021521 62 134 0.0 0.0 0.00 0.00 0.00 79 1010.5
20260510020007 62 134 0.0 0.0 0.00 0.00 0.00 77 1010.4
20260510014509 63 134 0.0 0.0 0.00 0.00 0.00 75 1010.2
20260510013014 64 134 0.0 0.0 0.00 0.00 0.00 73 1010.1
20260510011534 64 134 0.0 0.0 0.00 0.00 0.00 72 1009.9
20260510010023 64 134 0.0 0.0 0.00 0.00 0.00 72 1009.9
20260510004509 64 133 1.7 6.1 0.00 0.00 0.00 72 1009.8
20260510003015 65 148 1.7 6.1 0.00 0.00 0.00 72 1009.7
20260510001518 65 163 1.7 5.2 0.00 0.00 0.00 71 1009.6
20260510000041 65 168 3.5 8.7 0.00 0.00 0.00 71 1009.4
20260509234539 66 141 1.7 6.1 0.00 0.00 0.00 70 1009.3
20260509233013 66 140 2.6 7.8 0.00 0.00 0.00 69 1009.3
20260509231515 67 159 0.9 7.8 0.00 0.00 0.00 67 1009.2
20260509230019 68 148 0.9 8.7 0.00 0.00 0.00 64 1009.1
20260509224526 69 170 0.0 6.1 0.00 0.00 0.00 63 1009.1
20260509223023 69 301 0.0 0.0 0.00 0.00 0.00 65 1009.3
20260509221511 69 11 0.0 0.9 0.00 0.00 0.00 66 1009.2
20260509220017 70 346 0.0 0.9 0.00 0.00 0.00 67 1009.1
20260509214529 70 94 0.0 0.0 0.00 0.00 0.00 68 1009.0
20260509213029 71 125 0.0 0.0 0.00 0.00 0.00 64 1009.1
20260509211512 71 125 0.0 0.0 0.00 0.00 0.00 65 1008.9
20260509210008 71 240 0.0 0.0 0.00 0.00 0.00 64 1008.8
20260509204512 71 46 0.0 0.0 0.00 0.00 0.00 66 1008.9
20260509203004 71 254 0.0 0.0 0.00 0.00 0.00 55 1009.1
20260509201510 70 290 0.0 3.5 0.00 0.00 0.00 57 1009.2
20260509200014 69 68 0.0 5.2 0.00 0.00 0.00 68 1009.4
20260509194514 69 218 0.0 0.0 0.00 0.00 0.00 67 1009.6
20260509193011 69 226 0.0 0.0 0.00 0.00 0.00 67 1009.6
20260509191508 68 259 0.0 0.0 0.00 0.00 0.00 69 1009.7
20260509190015 67 259 0.0 0.0 0.00 0.00 0.00 73 1010.2
20260509184522 69 259 0.0 0.0 0.00 0.00 0.00 69 1010.5
20260509183016 70 259 0.0 0.0 0.00 0.00 0.00 62 1010.5
20260509181507 70 238 0.0 6.1 0.00 0.00 0.00 54 1010.5